Location: Alta
(39.2070°N, 120.8111°W)
Time: 11:52:01
(UTC+00:00)

NANOSAT C BR1 - Pass Details

Date: 07 April 2023
Orbit: 573 x 586 km, 98.0° (Epoch: 07 June)

Event Time Altitude Azimuth Distance (km) Brightness Sun altitude
Rises 10:02:30 0° 25° (NNE) 2,796 ? -36.6°
Reaches altitude 10° 10:04:56 10° 38° (NE) 1,890 ? -36.3°
Enters shadow 10:05:44 14° 45° (NE) 1,621 ? -36.2°
